DCS642 EDAZ-ETOU

Flight info

Callsign DCS642
Flight time 0h 58m
Altitude 32000
Route BOLBO2A BOLBO DCT ORTAG T177 ESEGU Z20 BEBLA DCT GED
Aircraft P180/L-SBDFGM3RWXY/LB1

Departure

Time 2026-04-28 18:07
Airport Schönhagen Airfield (EDAZ)

Arrival

Time 2026-04-28 19:06
Airport Wiesbaden Army Airfield (ETOU)
Time Latitude Longitude Altitude Speed Heading
2026-04-28 17:39 52.21047 13.15177 143 ft 0 kts 188°
2026-04-28 17:50 52.21046 13.15177 143 ft 0 kts 186°
2026-04-28 17:50 52.21040 13.15192 135 ft 4 kts 100°
2026-04-28 17:50 52.21034 13.15243 140 ft 6 kts 110°
2026-04-28 17:51 52.21009 13.15319 139 ft 9 kts 120°
2026-04-28 17:51 52.20971 13.15417 138 ft 12 kts 124°
2026-04-28 17:51 52.20919 13.15531 138 ft 14 kts 129°
2026-04-28 17:51 52.20863 13.15652 140 ft 13 kts 126°
2026-04-28 17:52 52.20805 13.15780 140 ft 15 kts 126°
2026-04-28 17:52 52.20746 13.15909 144 ft 13 kts 127°
2026-04-28 17:52 52.20625 13.16171 144 ft 16 kts 127°
2026-04-28 17:53 52.20564 13.16313 141 ft 13 kts 124°
2026-04-28 17:53 52.20527 13.16358 140 ft 4 kts 221°
2026-04-28 17:53 52.20517 13.16307 140 ft 6 kts 258°
2026-04-28 17:53 52.20515 13.16295 140 ft 7 kts 258°
2026-04-28 17:54 52.20501 13.16194 140 ft 11 kts 255°
2026-04-28 17:54 52.20479 13.16064 141 ft 13 kts 254°
2026-04-28 17:54 52.20464 13.15962 141 ft 0 kts 256°
2026-04-28 17:55 52.20463 13.15957 141 ft 2 kts 257°
2026-04-28 17:56 52.20456 13.15912 140 ft 7 kts 256°
2026-04-28 17:56 52.20455 13.15904 140 ft 7 kts 256°
2026-04-28 17:56 52.20453 13.15887 140 ft 8 kts 256°
2026-04-28 17:57 52.20432 13.15765 137 ft 14 kts 255°
2026-04-28 17:57 52.20407 13.15597 139 ft 15 kts 256°
2026-04-28 17:57 52.20382 13.15430 142 ft 16 kts 256°
2026-04-28 17:57 52.20353 13.15251 142 ft 18 kts 255°
2026-04-28 17:58 52.20321 13.15045 137 ft 13 kts 256°
2026-04-28 17:58 52.20281 13.14967 132 ft 8 kts 167°
2026-04-28 17:58 52.20279 13.14968 132 ft 0 kts 167°
2026-04-28 18:02 52.20278 13.14969 132 ft 0 kts 167°
2026-04-28 18:02 52.20273 13.14970 130 ft 1 kts 167°
2026-04-28 18:02 52.20262 13.14974 132 ft 2 kts 167°
2026-04-28 18:02 52.20248 13.14983 133 ft 2 kts 149°
2026-04-28 18:03 52.20239 13.14999 133 ft 3 kts 124°
2026-04-28 18:03 52.20255 13.15143 141 ft 19 kts 76°
2026-04-28 18:03 52.20288 13.15357 142 ft 21 kts 76°
2026-04-28 18:03 52.20327 13.15606 139 ft 23 kts 76°
2026-04-28 18:04 52.20365 13.15852 138 ft 22 kts 76°
2026-04-28 18:04 52.20401 13.16082 139 ft 20 kts 75°
2026-04-28 18:04 52.20437 13.16303 139 ft 19 kts 75°
2026-04-28 18:04 52.20466 13.16498 143 ft 17 kts 77°
2026-04-28 18:05 52.20494 13.16675 144 ft 16 kts 75°
2026-04-28 18:05 52.20511 13.16782 149 ft 13 kts 75°
2026-04-28 18:05 52.20542 13.16938 154 ft 9 kts 73°
2026-04-28 18:05 52.20534 13.16940 154 ft 7 kts 272°
2026-04-28 18:06 52.20531 13.16912 153 ft 0 kts 253°
2026-04-28 18:06 52.20446 13.16366 140 ft 94 kts 256°
2026-04-28 18:07 52.20235 13.15026 215 ft 138 kts 258°
2026-04-28 18:07 52.19984 13.13416 660 ft 158 kts 257°
2026-04-28 18:07 52.19377 13.11749 1079 ft 181 kts 223°
2026-04-28 18:07 52.18492 13.10367 1487 ft 177 kts 223°
2026-04-28 18:08 52.17462 13.09390 1873 ft 171 kts 191°
2026-04-28 18:08 52.16262 13.08874 1993 ft 186 kts 194°
2026-04-28 18:08 52.14997 13.08225 2001 ft 192 kts 187°
2026-04-28 18:08 52.13696 13.08479 2000 ft 190 kts 160°
2026-04-28 18:09 52.12401 13.08992 1995 ft 193 kts 164°
2026-04-28 18:09 52.11094 13.09434 2004 ft 191 kts 163°
2026-04-28 18:09 52.09794 13.09919 2199 ft 189 kts 162°
2026-04-28 18:09 52.08482 13.10423 2635 ft 197 kts 163°
2026-04-28 18:10 52.07198 13.11124 3142 ft 191 kts 150°
2026-04-28 18:10 52.06036 13.11972 3874 ft 180 kts 152°
2026-04-28 18:10 52.04900 13.12715 4629 ft 173 kts 154°
2026-04-28 18:10 52.03756 13.13451 5237 ft 184 kts 153°
2026-04-28 18:11 52.02566 13.14263 6042 ft 186 kts 153°
2026-04-28 18:11 52.01356 13.15086 6734 ft 191 kts 154°
2026-04-28 18:11 52.00057 13.15606 7358 ft 198 kts 179°
2026-04-28 18:11 51.98671 13.15486 8012 ft 201 kts 180°
2026-04-28 18:12 51.97239 13.15478 8557 ft 209 kts 179°
2026-04-28 18:12 51.95763 13.15461 9113 ft 215 kts 180°
2026-04-28 18:12 51.94227 13.15424 9321 ft 236 kts 180°
2026-04-28 18:12 51.92500 13.15389 9329 ft 257 kts 180°
2026-04-28 18:13 51.90682 13.15345 9330 ft 264 kts 180°
2026-04-28 18:13 51.88835 13.15301 9391 ft 265 kts 180°
2026-04-28 18:13 51.87088 13.15266 10162 ft 238 kts 180°
2026-04-28 18:13 51.85486 13.15235 10881 ft 228 kts 181°
2026-04-28 18:14 51.83910 13.15193 11611 ft 226 kts 181°
2026-04-28 18:14 51.82346 13.15165 12343 ft 224 kts 181°
2026-04-28 18:14 51.80803 13.14979 13047 ft 221 kts 197°
2026-04-28 18:14 51.79517 13.13596 13322 ft 235 kts 234°
2026-04-28 18:15 51.78859 13.11142 13317 ft 252 kts 259°
2026-04-28 18:15 51.78491 13.08260 13326 ft 268 kts 262°
2026-04-28 18:15 51.78109 13.05207 13320 ft 280 kts 261°
2026-04-28 18:15 51.77670 13.02126 13322 ft 284 kts 260°
2026-04-28 18:16 51.77221 12.99007 13324 ft 286 kts 259°
2026-04-28 18:16 51.76777 12.95869 13328 ft 287 kts 260°
2026-04-28 18:16 51.76360 12.92823 13889 ft 272 kts 260°
2026-04-28 18:16 51.75943 12.89934 14695 ft 254 kts 260°
2026-04-28 18:17 51.75552 12.87215 15244 ft 244 kts 261°
2026-04-28 18:17 51.75199 12.84692 16245 ft 218 kts 261°
2026-04-28 18:17 51.74865 12.82339 16831 ft 216 kts 261°
2026-04-28 18:17 51.74532 12.79959 17325 ft 218 kts 261°
2026-04-28 18:18 51.74195 12.77570 17842 ft 219 kts 261°
2026-04-28 18:18 51.73849 12.75176 18349 ft 220 kts 261°
2026-04-28 18:18 51.73506 12.72767 18799 ft 221 kts 261°
2026-04-28 18:18 51.73281 12.71167 19091 ft 221 kts 261°
2026-04-28 18:19 51.72813 12.67916 19613 ft 223 kts 261°
2026-04-28 18:19 51.72460 12.65466 20033 ft 225 kts 261°
2026-04-28 18:19 51.72107 12.63000 20437 ft 226 kts 261°
2026-04-28 18:19 51.71750 12.60524 20843 ft 228 kts 261°
2026-04-28 18:20 51.71393 12.58032 21268 ft 229 kts 261°
2026-04-28 18:20 51.71029 12.55525 21690 ft 230 kts 261°
2026-04-28 18:20 51.70670 12.53040 22111 ft 231 kts 261°
2026-04-28 18:20 51.70303 12.50507 22545 ft 233 kts 261°
2026-04-28 18:21 51.69933 12.47956 22994 ft 234 kts 261°
2026-04-28 18:21 51.69560 12.45394 23458 ft 236 kts 261°
2026-04-28 18:21 51.69187 12.42810 23908 ft 237 kts 261°
2026-04-28 18:21 51.68804 12.40214 24307 ft 238 kts 261°
2026-04-28 18:22 51.68426 12.37611 24720 ft 239 kts 261°
2026-04-28 18:22 51.68044 12.34998 25121 ft 240 kts 261°
2026-04-28 18:22 51.67658 12.32362 25540 ft 241 kts 261°
2026-04-28 18:22 51.67272 12.29745 25964 ft 242 kts 261°
2026-04-28 18:23 51.66884 12.27101 26407 ft 243 kts 261°
2026-04-28 18:23 51.66501 12.24489 26855 ft 244 kts 261°
2026-04-28 18:23 51.66106 12.21827 27312 ft 245 kts 261°
2026-04-28 18:23 51.65712 12.19153 27780 ft 246 kts 261°
2026-04-28 18:24 51.65315 12.16467 28246 ft 248 kts 261°
2026-04-28 18:24 51.65046 12.14646 28289 ft 258 kts 260°
2026-04-28 18:24 51.64467 12.10720 28304 ft 280 kts 260°
2026-04-28 18:24 51.63997 12.07586 28306 ft 296 kts 259°
2026-04-28 18:25 51.63506 12.04287 28300 ft 310 kts 259°
2026-04-28 18:25 51.62989 12.00852 28300 ft 322 kts 259°
2026-04-28 18:26 51.61355 11.89944 28303 ft 348 kts 259°
2026-04-28 18:26 51.60186 11.82247 28304 ft 360 kts 259°
2026-04-28 18:27 51.58987 11.74334 28300 ft 368 kts 258°
2026-04-28 18:27 51.57764 11.66295 28304 ft 372 kts 259°
2026-04-28 18:28 51.56515 11.58177 28295 ft 376 kts 258°
2026-04-28 18:28 51.55258 11.50000 28296 ft 378 kts 258°
2026-04-28 18:29 51.53986 11.41805 28297 ft 378 kts 258°
2026-04-28 18:29 51.52711 11.33598 28291 ft 379 kts 258°
2026-04-28 18:30 51.51430 11.25432 28285 ft 380 kts 258°
2026-04-28 18:30 51.50854 11.21741 28278 ft 380 kts 258°
2026-04-28 18:31 51.49553 11.13514 28276 ft 380 kts 258°
2026-04-28 18:31 51.47802 11.05506 28272 ft 383 kts 246°
2026-04-28 18:32 51.45217 10.98060 28265 ft 384 kts 243°
2026-04-28 18:32 51.42612 10.90521 28265 ft 385 kts 243°
2026-04-28 18:33 51.39994 10.83093 28260 ft 386 kts 243°
2026-04-28 18:33 51.37378 10.75599 28255 ft 386 kts 243°
2026-04-28 18:34 51.34736 10.68123 28254 ft 386 kts 243°
2026-04-28 18:34 51.32106 10.60649 28250 ft 386 kts 243°
2026-04-28 18:35 51.29465 10.53198 28247 ft 385 kts 243°
2026-04-28 18:35 51.26892 10.45724 28243 ft 383 kts 248°
2026-04-28 18:36 51.24784 10.37982 28238 ft 383 kts 247°
2026-04-28 18:36 51.22549 10.30268 28233 ft 383 kts 249°
2026-04-28 18:37 51.20396 10.22507 28240 ft 383 kts 247°
2026-04-28 18:37 51.18545 10.16097 28236 ft 383 kts 248°
2026-04-28 18:38 51.16372 10.08344 28237 ft 383 kts 248°
2026-04-28 18:38 51.13795 9.99362 28229 ft 383 kts 248°
2026-04-28 18:39 51.11588 9.91662 28227 ft 382 kts 247°
2026-04-28 18:39 51.09763 9.85284 28217 ft 381 kts 248°
2026-04-28 18:40 51.07553 9.77641 28218 ft 380 kts 247°
2026-04-28 18:40 51.04227 9.69422 28213 ft 384 kts 232°
2026-04-28 18:41 51.00885 9.64632 27900 ft 392 kts 219°
2026-04-28 18:41 50.98589 9.62371 27489 ft 396 kts 212°
2026-04-28 18:41 50.96058 9.60566 26967 ft 402 kts 204°
2026-04-28 18:41 50.93452 9.58907 26416 ft 404 kts 205°
2026-04-28 18:42 50.90874 9.57155 25900 ft 403 kts 206°
2026-04-28 18:42 50.88301 9.55435 25362 ft 401 kts 205°
2026-04-28 18:42 50.85721 9.53791 24834 ft 398 kts 205°
2026-04-28 18:42 50.83168 9.52134 24311 ft 394 kts 205°
2026-04-28 18:43 50.80655 9.50462 23794 ft 389 kts 206°
2026-04-28 18:43 50.78200 9.48858 23244 ft 384 kts 205°
2026-04-28 18:43 50.75719 9.47264 22724 ft 377 kts 205°
2026-04-28 18:43 50.73345 9.45704 22237 ft 372 kts 205°
2026-04-28 18:44 50.70967 9.44138 21751 ft 368 kts 205°
2026-04-28 18:44 50.66272 9.41114 20779 ft 361 kts 205°
2026-04-28 18:44 50.63963 9.39607 20304 ft 358 kts 205°
2026-04-28 18:45 50.61676 9.38115 19836 ft 352 kts 205°
2026-04-28 18:45 50.59448 9.36672 19375 ft 341 kts 205°
2026-04-28 18:45 50.57285 9.35291 18928 ft 331 kts 205°
2026-04-28 18:45 50.55202 9.33867 18492 ft 321 kts 212°
2026-04-28 18:46 50.53613 9.31529 17974 ft 314 kts 238°
2026-04-28 18:46 50.52536 9.28595 17624 ft 311 kts 242°
2026-04-28 18:46 50.51500 9.25583 17094 ft 315 kts 243°
2026-04-28 18:46 50.50490 9.22566 16577 ft 318 kts 243°
2026-04-28 18:47 50.49474 9.19475 16065 ft 319 kts 243°
2026-04-28 18:47 50.48469 9.16369 15563 ft 319 kts 244°
2026-04-28 18:47 50.47461 9.13259 15070 ft 320 kts 243°
2026-04-28 18:47 50.46444 9.10139 14548 ft 320 kts 244°
2026-04-28 18:48 50.45447 9.07066 14024 ft 312 kts 244°
2026-04-28 18:48 50.44462 9.04066 13443 ft 307 kts 243°
2026-04-28 18:48 50.43505 9.01122 13173 ft 295 kts 244°
2026-04-28 18:48 50.42589 8.98301 13166 ft 286 kts 243°
2026-04-28 18:49 50.41696 8.95551 13164 ft 281 kts 244°
2026-04-28 18:49 50.41113 8.93753 13160 ft 279 kts 243°
2026-04-28 18:49 50.39941 8.90137 13160 ft 277 kts 244°
2026-04-28 18:49 50.39056 8.87425 12920 ft 284 kts 243°
2026-04-28 18:50 50.38156 8.84656 12557 ft 293 kts 243°
2026-04-28 18:50 50.37234 8.81768 12206 ft 299 kts 245°
2026-04-28 18:50 50.36573 8.78666 11842 ft 301 kts 258°
2026-04-28 18:50 50.36205 8.75446 11481 ft 300 kts 259°
2026-04-28 18:51 50.35708 8.72280 11137 ft 299 kts 252°
2026-04-28 18:51 50.35030 8.69203 10784 ft 299 kts 250°
2026-04-28 18:51 50.34418 8.66098 10442 ft 298 kts 254°
2026-04-28 18:51 50.33904 8.62976 10110 ft 293 kts 255°
2026-04-28 18:52 50.33347 8.59927 9737 ft 291 kts 252°
2026-04-28 18:52 50.32739 8.56920 9373 ft 289 kts 252°
2026-04-28 18:52 50.32169 8.53908 9006 ft 288 kts 253°
2026-04-28 18:52 50.31617 8.50890 8647 ft 288 kts 253°
2026-04-28 18:53 50.31072 8.47918 8289 ft 288 kts 253°
2026-04-28 18:53 50.30510 8.44934 7936 ft 281 kts 252°
2026-04-28 18:53 50.29952 8.42053 7581 ft 274 kts 252°
2026-04-28 18:53 50.29410 8.39221 7232 ft 269 kts 251°
2026-04-28 18:54 50.28900 8.36475 7161 ft 259 kts 252°
2026-04-28 18:54 50.28387 8.33743 7163 ft 265 kts 251°
2026-04-28 18:54 50.27850 8.30950 7160 ft 271 kts 251°
2026-04-28 18:54 50.27307 8.28108 7163 ft 275 kts 251°
2026-04-28 18:55 50.26765 8.25235 7143 ft 277 kts 252°
2026-04-28 18:55 50.26205 8.22335 6916 ft 281 kts 251°
2026-04-28 18:55 50.25630 8.19275 6707 ft 276 kts 252°
2026-04-28 18:55 50.24971 8.16720 6562 ft 268 kts 233°
2026-04-28 18:56 50.23624 8.14818 6394 ft 257 kts 210°
2026-04-28 18:56 50.22118 8.13351 6139 ft 253 kts 207°
2026-04-28 18:56 50.20649 8.11935 5888 ft 244 kts 208°
2026-04-28 18:56 50.19220 8.10531 5622 ft 241 kts 208°
2026-04-28 18:57 50.17807 8.09148 5371 ft 239 kts 207°
2026-04-28 18:57 50.16406 8.07787 5114 ft 236 kts 208°
2026-04-28 18:57 50.15028 8.06417 4867 ft 235 kts 208°
2026-04-28 18:57 50.13649 8.05070 4611 ft 233 kts 207°
2026-04-28 18:58 50.12272 8.03744 4342 ft 231 kts 208°
2026-04-28 18:58 50.10918 8.02417 4088 ft 229 kts 207°
2026-04-28 18:58 50.09567 8.01097 3833 ft 229 kts 208°
2026-04-28 18:58 50.08212 7.99788 3593 ft 230 kts 206°
2026-04-28 18:59 50.06736 7.99142 3457 ft 214 kts 175°
2026-04-28 18:59 50.05337 7.99491 3447 ft 196 kts 157°
2026-04-28 18:59 50.04092 8.00111 3451 ft 187 kts 157°
2026-04-28 18:59 50.02859 8.00687 3449 ft 181 kts 157°
2026-04-28 19:00 50.01665 8.01239 3453 ft 174 kts 156°
2026-04-28 19:00 50.00682 8.02009 3447 ft 150 kts 131°
2026-04-28 19:00 50.00049 8.03261 3413 ft 148 kts 114°
2026-04-28 19:00 49.99769 8.04808 3297 ft 152 kts 94°
2026-04-28 19:01 49.99893 8.06420 3168 ft 144 kts 73°
2026-04-28 19:01 50.00193 8.07820 3037 ft 133 kts 75°
2026-04-28 19:01 50.00452 8.09213 2911 ft 133 kts 75°
2026-04-28 19:01 50.00723 8.10512 2806 ft 119 kts 72°
2026-04-28 19:02 50.00953 8.11746 2702 ft 120 kts 75°
2026-04-28 19:02 50.01196 8.12986 2595 ft 119 kts 73°
2026-04-28 19:02 50.01441 8.14274 2492 ft 126 kts 75°
2026-04-28 19:02 50.01683 8.15574 2350 ft 126 kts 73°
2026-04-28 19:03 50.01943 8.16864 2183 ft 126 kts 72°
2026-04-28 19:03 50.02197 8.18152 2011 ft 126 kts 73°
2026-04-28 19:03 50.02448 8.19429 1849 ft 123 kts 73°
2026-04-28 19:03 50.02687 8.20706 1682 ft 123 kts 73°
2026-04-28 19:04 50.02945 8.22001 1526 ft 127 kts 72°
2026-04-28 19:04 50.03210 8.23345 1339 ft 131 kts 72°
2026-04-28 19:04 50.03463 8.24682 1179 ft 129 kts 72°
2026-04-28 19:04 50.03733 8.26069 1001 ft 136 kts 72°
2026-04-28 19:05 50.03993 8.27417 833 ft 125 kts 72°
2026-04-28 19:05 50.04230 8.28678 714 ft 120 kts 70°
2026-04-28 19:05 50.04478 8.29931 594 ft 124 kts 72°
2026-04-28 19:05 50.04727 8.31211 480 ft 123 kts 71°
2026-04-28 19:06 50.04932 8.32279 459 ft 68 kts 73°
2026-04-28 19:06 50.04993 8.32593 461 ft 38 kts 73°
2026-04-28 19:06 50.05051 8.32893 461 ft 10 kts 74°
2026-04-28 19:06 50.05036 8.32955 461 ft 9 kts 157°
2026-04-28 19:07 50.04973 8.32973 461 ft 11 kts 170°
2026-04-28 19:07 50.04894 8.32997 460 ft 12 kts 171°
2026-04-28 19:07 50.04812 8.32970 459 ft 12 kts 199°
2026-04-28 19:07 50.04758 8.32926 457 ft 11 kts 221°
2026-04-28 19:08 50.04700 8.32853 455 ft 7 kts 206°
2026-04-28 19:08 50.04676 8.32798 455 ft 7 kts 251°
2026-04-28 19:08 50.04659 8.32781 454 ft 3 kts 164°
2026-04-28 19:08 50.04650 8.32786 453 ft 0 kts 160°